Location: Ammerl�gen
(47.2167°N, 9.6000°E)
Time: 09:44:48
(UTC+00:00)

Meteor 1-14 Rocket - Pass Details

Date: 21 April 2021
Orbit: 834 x 918 km, 81.3° (Epoch: 06 May)

Event Time Altitude Azimuth Distance (km) Brightness Sun altitude
Rises 23:00:55 0° 347° (NNW) 3,570 8.6 -30.4°
Reaches altitude 10° 23:03:24 10° 346° (NNW) 2,623 7.6 -30.5°
Enters shadow 23:08:51 71° 311° (NW) 969 4.5 -30.5°
